Home   Weather   Hampton   Past weeks

Flag for USA Past Weather in Hampton, Virginia, USA — Yesterday and Last 2 Weeks

Now
73 °F

Clear.


Feels Like: 68 °F
Forecast: 75 / 86 °F
Wind: 3 mph from Southwest

Location: Langley Air Force Base

Current Time: Aug 20, 2017 at 6:10:28 am

Latest Report: Aug 20, 2017 at 5:33 am


Visibility: 9 mi

Pressure: 30.03 "Hg

Humidity: 100%

Dew Point: 73 °F

Location of HamptonLocation

Past Weather in Hampton — Graph

°F

Hampton Temperature Yesterday

Maximum temperature yesterday: 87 °F (at 1:58 pm)
Minimum temperature yesterday: 74 °F (at 11:58 pm)
Average temperature yesterday: 79 °F

High & Low Weather Summary for the Past Weeks

 TemperatureHumidityPressure
High94 °F (Aug 18, 4:58 pm)100% (Aug 8, 1:20 am)30.27 "Hg (Aug 8, 1:20 am)
Low63 °F (Aug 6, 5:58 am)46% (Aug 6, 4:58 pm)29.81 "Hg (Aug 18, 6:41 pm)
Average77 °F84%30.00 "Hg
* Reported Aug 5 4:58 am — Aug 20 4:58 am, Hampton. Weather by CustomWeather, © 2017

Note: Actual official high and low records may vary slightly from our data, if they occured in-between our weather recording intervals... More about our weather records

Advertising

Hampton Weather History for the Previous 24 Hours

Scroll right to see more
 ConditionsComfort  
Time TempWeatherWind HumidityBarometerVisibility
4:58 am
Sun, Aug 20
72 °FClear.5 mph100%30.02 "Hg10 mi
4:23 am72 °FClear.3 mph100%30.01 "Hg10 mi
3:58 am73 °FClear.3 mph99%30.00 "Hg10 mi
2:58 am72 °FClear.3 mph99%30.00 "Hg10 mi
1:58 am73 °FClear.No wind96%30.00 "Hg10 mi
12:58 am73 °FClear.3 mph94%29.99 "Hg10 mi
11:58 pm
Sat, Aug 19
74 °FClear.5 mph90%29.99 "Hg10 mi
10:58 pm74 °FClear.No wind89%29.98 "Hg10 mi
9:58 pm75 °FClear.5 mph88%29.97 "Hg10 mi
8:58 pm81 °FClear.6 mph66%29.95 "Hg10 mi
7:58 pm82 °FClear.5 mph62%29.94 "Hg10 mi
6:58 pm84 °FSunny.3 mph54%29.93 "Hg10 mi
5:58 pm83 °FSunny.6 mph63%29.92 "Hg10 mi
4:58 pm86 °FSunny.8 mph56%29.93 "Hg10 mi
3:58 pm86 °FSunny.9 mph56%29.93 "Hg10 mi
2:58 pm87 °FSunny.9 mph57%29.94 "Hg10 mi
1:58 pm87 °FSunny.8 mph60%29.94 "Hg10 mi
12:58 pm85 °FSunny.8 mph61%29.95 "Hg10 mi
11:58 am85 °FScattered clouds.5 mph67%29.96 "Hg9 mi
10:58 am84 °FSunny.8 mph67%29.94 "Hg10 mi
9:58 am82 °FPassing clouds.5 mph81%29.94 "Hg10 mi
8:58 am78 °FPartly sunny.6 mph95%29.93 "Hg10 mi
7:58 am76 °FBroken clouds.5 mph99%29.92 "Hg10 mi
7:36 am75 °FBroken clouds.5 mph100%29.91 "Hg10 mi
6:58 am75 °FPartly sunny.No wind100%29.89 "Hg10 mi
Weather by CustomWeather, © 2017

See weather overviewHow to use our weather pages